• în România
  • Lista ţărilor
  • Pe 7 zile
  • Temperatura apei
  • Hartă satelitară
  • Meteo pe hartă
  • Widget-uri
  • user-avatar
    Intrare

    Meteo pe oră la Mikoszowa

    Astăzi, 21 Octombrie, Duminică

    Timp Temperatura Precipitaţii Vânt Presiune Umiditate
    00:00 +7°C° 0.1 mm 3 m/s 751 mmHg 76%
    01:00 +7°C° 0.1 mm 2 m/s 751 mmHg 78%
    02:00 +7°C° 0.1 mm 2 m/s 751 mmHg 81%
    03:00 +7°C° 0.1 mm 2 m/s 751 mmHg 84%
    04:00 +6°C° 0.1 mm 2 m/s 750 mmHg 87%
    05:00 +6°C° 0 mm 2 m/s 751 mmHg 89%
    06:00 +6°C° 0 mm 2 m/s 751 mmHg 90%
    07:00 +7°C° 0 mm 1 m/s 751 mmHg 91%
    08:00 +8°C° 0 mm 1 m/s 751 mmHg 85%
    09:00 +9°C° 0 mm 2 m/s 752 mmHg 79%
    10:00 +10°C° 0 mm 2 m/s 752 mmHg 74%
    11:00 +12°C° 0 mm 1 m/s 752 mmHg 70%
    12:00 +12°C° 0 mm 1 m/s 752 mmHg 66%
    13:00 +13°C° 0 mm 1 m/s 752 mmHg 62%
    14:00 +13°C° 0 mm 1 m/s 751 mmHg 64%
    15:00 +12°C° 0 mm 1 m/s 751 mmHg 65%
    16:00 +12°C° 0 mm 1 m/s 751 mmHg 66%
    17:00 +11°C° 0 mm 1 m/s 751 mmHg 71%
    18:00 +10°C° 0 mm 1 m/s 751 mmHg 77%
    19:00 +8°C° 0 mm 1 m/s 751 mmHg 82%
    20:00 +8°C° 0 mm 1 m/s 751 mmHg 83%
    21:00 +8°C° 0 mm 1 m/s 751 mmHg 84%
    22:00 +7°C° 0 mm 1 m/s 751 mmHg 85%
    23:00 +7°C° 0 mm 1 m/s 751 mmHg 85%

    Mâine, 22 Octombrie, Luni

    Timp Temperatura Precipitaţii Vânt Presiune Umiditate
    00:00 +7°C° 0 mm 1 m/s 751 mmHg 86%
    01:00 +7°C° 0 mm 1 m/s 751 mmHg 86%
    02:00 +7°C° 0 mm 1 m/s 751 mmHg 86%
    03:00 +6°C° 0 mm 1 m/s 751 mmHg 86%
    04:00 +6°C° 0 mm 1 m/s 750 mmHg 86%
    05:00 +6°C° 0 mm 1 m/s 750 mmHg 86%
    06:00 +6°C° 0 mm 1 m/s 750 mmHg 86%
    07:00 +6°C° 0 mm 1 m/s 750 mmHg 85%
    08:00 +8°C° 0 mm 1 m/s 750 mmHg 77%
    09:00 +10°C° 0 mm 1 m/s 750 mmHg 68%
    10:00 +12°C° 0 mm 1 m/s 750 mmHg 60%
    11:00 +13°C° 0 mm 2 m/s 750 mmHg 56%
    12:00 +14°C° 0 mm 2 m/s 750 mmHg 52%
    13:00 +14°C° 0 mm 3 m/s 749 mmHg 48%
    14:00 +13°C° 0 mm 3 m/s 749 mmHg 53%
    15:00 +13°C° 0 mm 3 m/s 749 mmHg 58%
    16:00 +12°C° 0 mm 3 m/s 749 mmHg 62%
    17:00 +11°C° 0.2 mm 3 m/s 749 mmHg 70%
    18:00 +10°C° 0.2 mm 4 m/s 750 mmHg 77%
    19:00 +8°C° 0.2 mm 4 m/s 750 mmHg 84%
    20:00 +8°C° 0.2 mm 4 m/s 750 mmHg 84%
    21:00 +7°C° 0.2 mm 4 m/s 751 mmHg 84%
    22:00 +7°C° 0.2 mm 4 m/s 751 mmHg 84%
    23:00 +6°C° 0 mm 4 m/s 751 mmHg 86%

    Poimâine, 23 Octombrie, Marţi

    Timp Temperatura Precipitaţii Vânt Presiune Umiditate
    00:00 +5°C° 0 mm 3 m/s 751 mmHg 88%
    01:00 +4°C° 0 mm 3 m/s 751 mmHg 90%
    02:00 +4°C° 0 mm 3 m/s 751 mmHg 90%
    03:00 +3°C° 0 mm 3 m/s 751 mmHg 90%
    04:00 +3°C° 0 mm 3 m/s 750 mmHg 90%
    05:00 +3°C° 0 mm 3 m/s 750 mmHg 88%
    06:00 +3°C° 0 mm 3 m/s 750 mmHg 87%
    07:00 +3°C° 0 mm 3 m/s 749 mmHg 86%
    08:00 +5°C° 0 mm 4 m/s 749 mmHg 79%
    09:00 +6°C° 0 mm 5 m/s 748 mmHg 72%
    10:00 +7°C° 0 mm 6 m/s 748 mmHg 64%
    11:00 +6°C° 0.1 mm 7 m/s 746 mmHg 64%
    12:00 +8°C° 0.1 mm 7 m/s 745 mmHg 63%
    13:00 +7°C° 0.1 mm 8 m/s 744 mmHg 62%
    14:00 +7°C° 0.5 mm 8 m/s 743 mmHg 66%
    15:00 +7°C° 0.5 mm 9 m/s 742 mmHg 69%
    16:00 +6°C° 0.5 mm 9 m/s 741 mmHg 72%
    17:00 +7°C° 0.3 mm 10 m/s 739 mmHg 74%
    18:00 +7°C° 0.3 mm 10 m/s 738 mmHg 75%
    19:00 +8°C° 0.3 mm 11 m/s 737 mmHg 77%
    20:00 +8°C° 0.5 mm 11 m/s 737 mmHg 77%
    21:00 +9°C° 0.5 mm 11 m/s 736 mmHg 78%
    22:00 +9°C° 0.5 mm 12 m/s 736 mmHg 79%
    23:00 +9°C° 0.6 mm 11 m/s 736 mmHg 78%

    24 Octombrie, Miercuri

    Timp Temperatura Precipitaţii Vânt Presiune Umiditate
    00:00 +9°C° 0.6 mm 10 m/s 736 mmHg 77%
    01:00 +9°C° 0.6 mm 10 m/s 735 mmHg 76%
    02:00 +8°C° 0.2 mm 10 m/s 736 mmHg 74%
    03:00 +7°C° 0.2 mm 10 m/s 736 mmHg 73%
    04:00 +6°C° 0.2 mm 10 m/s 736 mmHg 71%
    05:00 +6°C° 0.1 mm 9 m/s 737 mmHg 71%
    06:00 +5°C° 0.1 mm 8 m/s 737 mmHg 71%
    07:00 +4°C° 0.1 mm 8 m/s 738 mmHg 71%
    08:00 +4°C° 0.1 mm 8 m/s 738 mmHg 68%
    09:00 +5°C° 0.1 mm 9 m/s 739 mmHg 65%
    10:00 +5°C° 0.1 mm 9 m/s 739 mmHg 62%
    11:00 +6°C° 0.1 mm 9 m/s 739 mmHg 59%
    12:00 +6°C° 0.1 mm 9 m/s 739 mmHg 55%
    13:00 +6°C° 0.1 mm 9 m/s 739 mmHg 52%
    14:00 +6°C° 0 mm 8 m/s 740 mmHg 52%
    15:00 +6°C° 0 mm 8 m/s 740 mmHg 52%
    16:00 +6°C° 0 mm 7 m/s 740 mmHg 52%
    17:00 +5°C° 0 mm 6 m/s 740 mmHg 55%
    18:00 +5°C° 0 mm 6 m/s 741 mmHg 58%
    19:00 +4°C° 0 mm 6 m/s 741 mmHg 61%
    20:00 +5°C° 0 mm 5 m/s 742 mmHg 64%
    21:00 +3°C° 0 mm 5 m/s 742 mmHg 67%
    22:00 +3°C° 0 mm 5 m/s 742 mmHg 70%
    23:00 +3°C° 0 mm 5 m/s 742 mmHg 74%

    25 Octombrie, Joi

    Timp Temperatura Precipitaţii Vânt Presiune Umiditate
    00:00 +3°C° 0 mm 5 m/s 742 mmHg 77%
    01:00 +3°C° 0 mm 5 m/s 742 mmHg 81%
    02:00 +3°C° 0 mm 5 m/s 742 mmHg 81%
    03:00 +5°C° 0 mm 5 m/s 741 mmHg 82%
    04:00 +6°C° 0 mm 5 m/s 741 mmHg 83%
    05:00 +6°C° 0.6 mm 5 m/s 741 mmHg 85%
    06:00 +7°C° 0.6 mm 5 m/s 740 mmHg 88%
    07:00 +8°C° 0.6 mm 6 m/s 740 mmHg 90%
    08:00 +9°C° 0.3 mm 6 m/s 740 mmHg 87%
    09:00 +10°C° 0.3 mm 7 m/s 740 mmHg 85%
    10:00 +10°C° 0.3 mm 8 m/s 739 mmHg 82%
    11:00 +11°C° 0.1 mm 8 m/s 739 mmHg 78%
    12:00 +11°C° 0.1 mm 9 m/s 739 mmHg 74%
    13:00 +11°C° 0.1 mm 9 m/s 739 mmHg 70%
    14:00 +10°C° 0 mm 8 m/s 739 mmHg 72%
    15:00 +10°C° 0 mm 7 m/s 740 mmHg 74%
    16:00 +10°C° 0 mm 7 m/s 740 mmHg 76%
    17:00 +9°C° 0 mm 6 m/s 740 mmHg 77%
    18:00 +9°C° 0 mm 6 m/s 740 mmHg 79%
    19:00 +9°C° 0 mm 6 m/s 740 mmHg 80%
    20:00 +9°C° 0 mm 6 m/s 740 mmHg 81%
    21:00 +9°C° 0 mm 5 m/s 740 mmHg 82%
    22:00 +9°C° 0 mm 5 m/s 740 mmHg 84%
    23:00 +8°C° 0 mm 5 m/s 740 mmHg 84%

    26 Octombrie, Vineri

    Timp Temperatura Precipitaţii Vânt Presiune Umiditate
    00:00 +8°C° 0 mm 5 m/s 740 mmHg 85%
    01:00 +8°C° 0 mm 4 m/s 740 mmHg 86%
    02:00 +7°C° 0 mm 4 m/s 740 mmHg 87%
    03:00 +7°C° 0 mm 4 m/s 739 mmHg 88%
    04:00 +6°C° 0 mm 4 m/s 739 mmHg 88%
    05:00 +7°C° 0 mm 3 m/s 739 mmHg 89%
    06:00 +7°C° 0 mm 3 m/s 739 mmHg 89%
    07:00 +5°C° 0 mm 3 m/s 738 mmHg 90%
    08:00 +8°C° 0 mm 3 m/s 738 mmHg 83%
    09:00 +8°C° 0 mm 4 m/s 738 mmHg 76%
    10:00 +11°C° 0 mm 4 m/s 738 mmHg 70%
    11:00 +11°C° 0 mm 4 m/s 737 mmHg 68%
    12:00 +11°C° 0 mm 4 m/s 737 mmHg 66%
    13:00 +12°C° 0 mm 4 m/s 736 mmHg 64%
    14:00 +11°C° 0 mm 3 m/s 736 mmHg 67%
    15:00 +11°C° 0 mm 3 m/s 735 mmHg 69%
    16:00 +12°C° 0 mm 2 m/s 735 mmHg 71%
    17:00 +10°C° 0 mm 2 m/s 735 mmHg 74%
    18:00 +9°C° 0 mm 2 m/s 734 mmHg 78%
    19:00 +8°C° 0 mm 2 m/s 734 mmHg 81%
    20:00 +8°C° 0 mm 2 m/s 734 mmHg 82%
    21:00 +8°C° 0 mm 2 m/s 734 mmHg 83%
    22:00 +8°C° 0 mm 2 m/s 733 mmHg 84%
    23:00 +8°C° 0 mm 2 m/s 733 mmHg 86%
    Arată mai mult